Hourly Data Report for October 22, 2015

All times are specified in Local Standard Time (LST). Add 1 hour to adjust for Daylight Saving Time where and when it is observed.

RESOLUTE BAY A
NUNAVUT

74°43'01.000" N
94°58'10.000" W
67.70 m
2403498
71924
YRB

Download Data

Hourly Data (October 2015)
Hourly Data Report for October 22, 2015
Temp Definition
°C
Dew Point Temp Definition
°C
Rel Hum Definition
%
Wind Dir Definition
10's deg

Wind Spd Definition
km/h
Visibility Definition
km
Stn Press Definition
kPa
Hmdx Definition


Wind Chill Definition


Weather Definition


TIME
00:00 Legend Double Dagger -12.5 -14.0 89 31 23 1.0 99.71   -22 Snow
01:00 Legend Double Dagger -11.9 -13.4 89 27 40 0.6 99.67   -23 Snow,Blowing Snow
02:00 Legend Double Dagger -12.1 -13.7 88 27 42 0.6 99.65   -24 Snow,Blowing Snow
03:00 Legend Double Dagger -12.1 -13.7 88 27 46 0.6 99.62   -24 Snow,Blowing Snow
04:00 Legend Double Dagger -11.8 -13.4 88 27 43 1.0 99.61   -24 Snow,Blowing Snow
05:00 Legend Double Dagger -11.8 -13.6 87 26 37 2.0 99.60   -23 Snow,Blowing Snow
06:00 Legend Double Dagger -11.9 -13.5 88 27 43 0.8 99.50   -24 Snow,Blowing Snow
07:00 Legend Double Dagger -11.7 -13.2 89 26 34 1.6 99.47   -22 Snow,Blowing Snow
08:00 Legend Double Dagger -11.7 -13.2 89 26 50 0.4 99.42   -24 Snow,Blowing Snow
09:00 Legend Double Dagger -11.6 -13.2 88 26 43 0.4 99.41   -23 Snow,Blowing Snow
10:00 Legend Double Dagger -11.3 -12.8 89 26 42 0.4 99.38   -23 Snow,Blowing Snow
11:00 Legend Double Dagger -12.6 -14.2 88 33 16 0.4 99.39   -20 Snow,Blowing Snow
12:00 Legend Double Dagger -12.8 -14.4 88 32 19 4.0 99.39   -21 Snow
13:00 Legend Double Dagger -13.3 -15.3 85 32 26 6.4 99.40   -23 Snow
14:00 Legend Double Dagger -13.6 -15.6 85 31 27 9.7 99.39   -24 Snow
15:00 Legend Double Dagger -13.6 -15.9 83 33 21 9.7 99.46   -23 Snow
16:00 Legend Double Dagger -15.3 -17.4 84 33 24 12.9 99.45   -25 LegendNANA
17:00 Legend Double Dagger -16.5 -18.3 86 33 16 6.4 99.44   -25 Snow
18:00 Legend Double Dagger -15.4 -17.2 86 34 14 4.8 99.47   -23 Snow
19:00 Legend Double Dagger -16.5 -18.5 85 34 27 4.8 99.46   -27 Snow
20:00 Legend Double Dagger -16.9 -18.9 85 33 24 24.1 99.52   -27 Snow
21:00 Legend Double Dagger -17.3 -19.4 84 32 21 24.1 99.55   -27 Snow
22:00 Legend Double Dagger -16.5 -18.6 84 32 25 24.1 99.60   -27 Snow
23:00 Legend Double Dagger -15.0 -17.4 82 36 23 24.1 99.64   -25 Snow

Notes on Data Quality.

Legend

  • E = Estimated
  • M = Missing
  • NA = Not Available
  • ‡ = Partner data that is not subject to review by the National Climate Archives
Date modified: